EW9837 Weather Reports


Display with metric or nautical units.
time (UTC)temp
F
wind
direction
speed
MPH
gust
MPH
rain 1hr
in
rain 24hr
in
rain mn
in
humidity
%
barometer
mb
20260509210036 72 333 4.0 10.0 0.00 0.00 0.00 47 1021.5
20260509204538 72 348 4.0 9.0 0.00 0.00 0.00 49 1021.6
20260509201532 69 343 4.0 10.0 0.00 0.00 0.00 51 1021.9
20260509200044 70 360 5.0 9.0 0.00 0.00 0.00 51 1022.1
20260509200036 70 6 4.0 10.0 0.00 0.00 0.00 50 1022.3
20260509191533 69 7 4.0 8.0 0.00 0.00 0.00 49 1022.5
20260509190107 68 34 3.0 8.0 0.00 0.00 0.00 49 1022.7
20260509184536 67 11 3.0 8.0 0.00 0.00 0.00 49 1022.8
20260509183033 67 29 4.0 9.0 0.00 0.00 0.00 48 1023.0
20260509181532 66 8 2.0 8.0 0.00 0.00 0.00 49 1023.1
20260509174535 64 276 2.0 7.0 0.00 0.00 0.00 50 1023.1
20260509173032 64 353 2.0 7.0 0.00 0.00 0.00 50 1023.1
20260509164534 61 16 3.0 7.0 0.00 0.00 0.00 51 1023.4
20260509163036 62 336 2.0 6.0 0.00 0.00 0.00 53 1023.4
20260509161643 61 1 1.0 4.0 0.00 0.00 0.00 55 1023.6
20260509154536 60 1 0.0 2.0 0.00 0.00 0.00 59 1023.7
20260509153036 57 20 2.0 4.0 0.00 0.00 0.00 63 1023.7
20260509151537 55 338 2.0 4.0 0.00 0.00 0.00 66 1023.7
20260509150036 55 19 1.0 3.0 0.00 0.00 0.00 73 1023.6
20260509144533 52 62 0.0 3.0 0.00 0.00 0.00 82 1023.7
20260509143032 48 90 0.0 0.0 0.00 0.00 0.00 94 1023.6
20260509141533 42 112 1.0 3.0 0.00 0.00 0.00 95 1023.5
20260509140142 38 156 2.0 3.0 0.00 0.00 0.00 95 1023.3
20260509134541 36 200 1.0 3.0 0.00 0.00 0.00 94 1023.1
20260509133107 34 157 1.0 4.0 0.00 0.00 0.00 94 1022.9
20260509131607 34 141 3.0 4.0 0.00 0.00 0.00 94 1022.9
20260509130034 34 150 3.0 4.0 0.00 0.00 0.00 94 1022.7
20260509124628 35 158 3.0 4.0 0.00 0.00 0.00 94 1022.6
20260509123036 36 230 1.0 3.0 0.00 0.00 0.00 94 1022.5
20260509120035 36 173 2.0 5.0 0.00 0.00 0.00 93 1022.5
20260509114533 36 168 3.0 5.0 0.00 0.00 0.00 93 1022.5
20260509113034 36 173 3.0 4.0 0.00 0.00 0.00 93 1022.6
20260509111538 38 195 2.0 4.0 0.00 0.00 0.00 92 1022.7
20260509110036 38 248 1.0 4.0 0.00 0.00 0.00 92 1022.7
20260509104536 38 146 1.0 4.0 0.00 0.00 0.00 91 1022.7
20260509103105 39 175 1.0 5.0 0.00 0.00 0.00 90 1022.8
20260509101535 39 186 0.0 3.0 0.00 0.00 0.00 89 1022.8
20260509100108 40 183 2.0 4.0 0.00 0.00 0.00 88 1023.0
20260509094534 41 183 3.0 5.0 0.00 0.00 0.00 88 1023.0
20260509093035 42 177 3.0 5.0 0.00 0.00 0.00 86 1023.2
20260509091535 44 156 2.0 5.0 0.00 0.00 0.00 85 1023.3
20260509090035 45 152 4.0 10.0 0.00 0.00 0.00 86 1023.4
20260509084544 44 138 4.0 8.0 0.00 0.00 0.00 88 1023.6
20260509084535 43 174 3.0 8.0 0.00 0.00 0.00 87 1023.8
20260509073034 46 170 3.0 6.0 0.00 0.00 0.00 85 1024.5
20260509071536 44 212 5.0 6.0 0.00 0.00 0.00 84 1024.5
20260509064606 46 180 2.0 4.0 0.00 0.00 0.00 80 1024.7
20260509063035 48 197 2.0 4.0 0.00 0.00 0.00 79 1024.7
20260509061534 49 173 1.0 4.0 0.00 0.00 0.00 77 1024.7
20260509054540 50 172 1.0 3.0 0.00 0.00 0.00 73 1024.7
20260509054534 51 142 2.0 4.0 0.00 0.00 0.00 73 1024.6
20260509051534 51 115 2.0 4.0 0.00 0.00 0.00 73 1024.5
20260509050111 50 324 2.0 7.0 0.00 0.00 0.00 73 1024.4
20260509044531 50 308 2.0 5.0 0.00 0.00 0.00 71 1024.3
20260509043031 52 308 0.0 3.0 0.00 0.00 0.00 67 1024.3
20260509041532 54 165 1.0 6.0 0.00 0.00 0.00 64 1024.1
20260509040034 54 298 1.0 9.0 0.00 0.00 0.00 63 1023.9
20260509034542 55 284 2.0 7.0 0.00 0.00 0.00 61 1023.8
20260509033143 56 272 2.0 11.0 0.00 0.00 0.00 60 1023.5
20260509024534 58 272 4.0 14.0 0.00 0.00 0.00 54 1023.2
20260509023034 59 257 6.0 16.0 0.00 0.00 0.00 51 1023.1
20260509021532 60 271 4.0 14.0 0.00 0.00 0.00 49 1023.0
20260509020036 61 251 7.0 17.0 0.00 0.00 0.00 47 1023.0
20260509014535 62 250 7.0 19.0 0.00 0.00 0.00 44 1023.0
20260509010153 64 241 7.0 15.0 0.00 0.00 0.00 40 1022.9
20260509004537 64 286 6.0 13.0 0.00 0.00 0.00 38 1022.8
20260509003106 65 301 5.0 16.0 0.00 0.00 0.00 38 1022.6
20260509001537 66 304 6.0 14.0 0.00 0.00 0.00 35 1022.2
20260508233032 67 271 6.0 19.0 0.00 0.00 0.00 33 1022.0
20260508230105 67 262 6.0 20.0 0.00 0.00 0.00 31 1021.8
20260508224608 67 296 6.0 13.0 0.00 0.00 0.00 30 1021.7
20260508223035 68 297 7.0 19.0 0.00 0.00 0.00 29 1021.7
20260508221533 68 271 6.0 17.0 0.00 0.00 0.00 28 1021.7
20260508220034 68 250 6.0 19.0 0.00 0.00 0.00 28 1021.7
20260508214535 68 258 7.0 19.0 0.00 0.00 0.00 27 1021.8
20260508213034 67 253 8.0 26.0 0.00 0.00 0.00 26 1021.8
20260508211618 67 244 10.0 28.0 0.00 0.00 0.00 26 1021.6
20260508211608 67 242 9.0 21.0 0.00 0.00 0.00 25 1021.6